South Hill, VA

9:08 PM EDT on May 27, 2017 (GMT -0400)
Mecklenburg-Brunswick Regional

Weather History for KAVC - June, 2013

Change the Weather History Date:

Wednesday, June 12, 2013

  Actual Average (KEMV) Record (KEMV)
Temperature  
Mean Temperature 78 °F -  
Max Temperature 91 °F 85 °F 96 °F (2002)
Min Temperature 66 °F 60 °F 49 °F (1988)
Cooling Degree Days 14    
Growing Degree Days 28 (Base 50)    
Moisture  
Dew Point 72 °F    
Average Humidity 80    
Maximum Humidity 100    
Minimum Humidity 52    
Precipitation  
Precipitation 0.00 in - - ()
Sea Level Pressure  
Sea Level Pressure 29.96 in    
Wind  
Wind Speed 3 mph (SW)    
Max Wind Speed 12 mph    
Max Gust Speed 17 mph    
Visibility 10 miles    
Events      
Averages and records for this station are not official NWS values.
T = Trace of Precipitation, MM = Missing Value Source: NWS Daily Summary

Daily Weather History Graph

Daily Weather History Graph

Search for Another Location

Airport or City:

Trip Planner

Search our weather history database for the weather conditions in past years. The results will help you decide how hot, cold, wet, or windy it might be!

Date:

Astronomy

Jun. 12, 2013 Rise Set
Actual Time 5:52 AM EDT 8:31 PM EDT
Civil Twilight 5:22 AM EDT 9:02 PM EDT
Nautical Twilight 4:44 AM EDT 9:40 PM EDT
Astronomical Twilight 4:01 AM EDT 10:22 PM EDT
Moon 9:25 AM EDT (6/12) 11:11 PM EDT (6/12)
Length of Visible Light 15h 39m
Length of Day
14h 38m
Waxing Crescent, 14% of the Moon is Illuminated
Jun 12
Waxing Crescent
Jun 16
First Quarter
Jun 23
Full
Jun 30
Last Quarter
Jul 8
New

Hourly Weather History & Observations

Time (EDT) Temp. Heat Index Dew Point Humidity Pressure Visibility Wind Dir Wind Speed Gust Speed Precip Events Conditions
12:15 AM 69.8 °F - 69.8 °F 100% 29.99 in 10.0 mi Calm Calm - N/A   Clear
12:35 AM 68.0 °F - 68.0 °F 100% 29.99 in 10.0 mi SW 3.5 mph - N/A   Clear
12:55 AM 69.8 °F - 69.8 °F 100% 29.99 in 10.0 mi Calm Calm - N/A   Clear
1:15 AM 69.8 °F - 69.8 °F 100% 29.99 in 10.0 mi Calm Calm - N/A   Clear
1:35 AM 69.8 °F - 69.8 °F 100% 29.98 in 10.0 mi Calm Calm - N/A   Clear
1:55 AM 69.8 °F - 69.8 °F 100% 29.98 in 10.0 mi Calm Calm - N/A   Clear
2:15 AM 68.0 °F - 68.0 °F 100% 29.97 in 10.0 mi SSW 3.5 mph - N/A   Clear
2:35 AM 66.2 °F - 66.2 °F 100% 29.97 in 7.0 mi SW 3.5 mph - N/A   Clear
2:55 AM 66.2 °F - 66.2 °F 100% 29.97 in 10.0 mi Calm Calm - N/A   Clear
3:15 AM 66.2 °F - 66.2 °F 100% 29.97 in 10.0 mi SSW 3.5 mph - N/A   Clear
3:35 AM 68.0 °F - 68.0 °F 100% 29.97 in 10.0 mi Calm Calm - N/A   Clear
3:55 AM 68.0 °F - 68.0 °F 100% 29.97 in 10.0 mi Calm Calm - N/A   Clear
4:15 AM 68.0 °F - 68.0 °F 100% 29.98 in 10.0 mi Calm Calm - N/A   Clear
4:35 AM 69.8 °F - 69.8 °F 100% 29.99 in 10.0 mi West 3.5 mph - N/A   Clear
4:55 AM 69.8 °F - 69.8 °F 100% 29.99 in 10.0 mi Calm Calm - N/A   Clear
5:15 AM 71.6 °F - 69.8 °F 94% 29.99 in 10.0 mi Calm Calm - N/A   Clear
5:35 AM 69.8 °F - 69.8 °F 100% 29.99 in 10.0 mi Calm Calm - N/A   Clear
5:55 AM 69.8 °F - 68.0 °F 94% 29.99 in 10.0 mi Calm Calm - N/A   Clear
6:15 AM 66.2 °F - 66.2 °F 100% 30.00 in 10.0 mi Calm Calm - N/A   Clear
6:35 AM 68.0 °F - 68.0 °F 100% 30.00 in 10.0 mi Calm Calm - N/A   Clear
6:55 AM 68.0 °F - 68.0 °F 100% 30.00 in 10.0 mi Calm Calm - N/A   Clear
7:15 AM 69.8 °F - 69.8 °F 100% 30.00 in 10.0 mi Calm Calm - N/A   Clear
7:35 AM 73.4 °F - 71.6 °F 94% 29.99 in 10.0 mi Calm Calm - N/A   Clear
7:55 AM 75.2 °F - 71.6 °F 89% 29.99 in 10.0 mi SW 3.5 mph - N/A   Clear
8:15 AM 75.2 °F - 71.6 °F 89% 29.98 in 10.0 mi SW 3.5 mph - N/A   Clear
8:35 AM 78.8 °F - 69.8 °F 74% 29.99 in 10.0 mi WSW 3.5 mph - N/A   Scattered Clouds
8:55 AM 78.8 °F - 69.8 °F 74% 30.00 in 10.0 mi West 3.5 mph - N/A   Scattered Clouds
9:15 AM 78.8 °F - 71.6 °F 78% 30.00 in 10.0 mi Calm Calm - N/A   Mostly Cloudy
9:35 AM 80.6 °F 84.6 °F 71.6 °F 74% 30.00 in 10.0 mi West 4.6 mph - N/A   Scattered Clouds
9:55 AM 82.4 °F 87.2 °F 71.6 °F 70% 30.00 in 10.0 mi WSW 4.6 mph - N/A   Clear
10:15 AM 84.2 °F 90.9 °F 73.4 °F 70% 29.99 in 10.0 mi WSW 3.5 mph - N/A   Scattered Clouds
10:35 AM 84.2 °F 89.6 °F 71.6 °F 66% 29.98 in 10.0 mi WSW 3.5 mph - N/A   Clear
10:55 AM 86.0 °F 91.8 °F 71.6 °F 62% 29.98 in 10.0 mi West 3.5 mph - N/A   Clear
11:15 AM 87.8 °F 93.8 °F 71.6 °F 58% 29.98 in 10.0 mi West 3.5 mph - N/A   Clear
11:35 AM 87.8 °F 93.8 °F 71.6 °F 58% 29.98 in 10.0 mi WSW 5.8 mph - N/A   Scattered Clouds
11:55 AM 89.6 °F 98.2 °F 73.4 °F 59% 29.97 in 10.0 mi SW 6.9 mph - N/A   Clear
12:15 PM 89.6 °F 96.2 °F 71.6 °F 55% 29.98 in 10.0 mi West 5.8 mph - N/A   Clear
12:35 PM 89.6 °F 96.2 °F 71.6 °F 55% 29.97 in 10.0 mi West 5.8 mph - N/A   Clear
12:55 PM 89.6 °F 98.2 °F 73.4 °F 59% 29.97 in 10.0 mi SW 11.5 mph - N/A   Clear
1:15 PM 89.6 °F 96.2 °F 71.6 °F 55% 29.97 in 10.0 mi West 6.9 mph - N/A   Clear
1:35 PM 89.6 °F 96.2 °F 71.6 °F 55% 29.97 in 10.0 mi WSW 6.9 mph - N/A   Clear
1:55 PM 91.4 °F 98.4 °F 71.6 °F 52% 29.97 in 10.0 mi SW 9.2 mph - N/A   Clear
2:15 PM 91.4 °F 98.4 °F 71.6 °F 52% 29.96 in 10.0 mi West 6.9 mph 17.3 mph N/A   Clear
2:35 PM 91.4 °F 100.1 °F 73.4 °F 55% 29.95 in 10.0 mi WSW 8.1 mph - N/A   Clear
2:55 PM 91.4 °F 100.1 °F 73.4 °F 55% 29.94 in 10.0 mi West 6.9 mph - N/A   Scattered Clouds
3:15 PM 89.6 °F 98.2 °F 73.4 °F 59% 29.94 in 10.0 mi SW 8.1 mph - N/A   Clear
3:35 PM 91.4 °F 100.1 °F 73.4 °F 55% 29.95 in 10.0 mi WSW 9.2 mph - N/A   Scattered Clouds
3:55 PM 87.8 °F 95.6 °F 73.4 °F 62% 29.95 in 10.0 mi SW 11.5 mph - N/A   Scattered Clouds
4:15 PM 87.8 °F 95.6 °F 73.4 °F 62% 29.95 in 10.0 mi WSW 6.9 mph - N/A   Mostly Cloudy
4:35 PM 91.4 °F 100.1 °F 73.4 °F 55% 29.94 in 10.0 mi WSW 8.1 mph - N/A   Scattered Clouds
4:55 PM 89.6 °F 98.2 °F 73.4 °F 59% 29.93 in 10.0 mi SSW 9.2 mph - N/A   Clear
5:15 PM 91.4 °F 100.1 °F 73.4 °F 55% 29.93 in 10.0 mi SW 8.1 mph - N/A   Clear
5:35 PM 89.6 °F 99.8 °F 75.2 °F 62% 29.93 in 10.0 mi SW 6.9 mph - N/A   Clear
5:55 PM 89.6 °F 99.8 °F 75.2 °F 62% 29.92 in 10.0 mi SW 5.8 mph - N/A   Clear
6:15 PM 89.6 °F 99.8 °F 75.2 °F 62% 29.92 in 10.0 mi SSW 9.2 mph - N/A   Clear
6:35 PM 89.6 °F 99.8 °F 75.2 °F 62% 29.92 in 10.0 mi SW 4.6 mph - N/A   Clear
6:55 PM 89.6 °F 99.8 °F 75.2 °F 62% 29.92 in 10.0 mi SSW 8.1 mph - N/A   Clear
7:15 PM 87.8 °F 97.6 °F 75.2 °F 66% 29.92 in 10.0 mi SW 5.8 mph - N/A   Clear
7:35 PM 87.8 °F 97.6 °F 75.2 °F 66% 29.92 in 10.0 mi SSW 5.8 mph - N/A   Clear
7:55 PM 84.2 °F 94.1 °F 77.0 °F 79% 29.91 in 10.0 mi SSW 5.8 mph - N/A   Clear
8:15 PM 84.2 °F 94.1 °F 77.0 °F 79% 29.91 in 10.0 mi SSW 4.6 mph - N/A   Clear
8:35 PM 82.4 °F 90.9 °F 77.0 °F 84% 29.91 in 10.0 mi SSW 4.6 mph - N/A   Clear
8:55 PM 80.6 °F 87.1 °F 77.0 °F 89% 29.91 in 10.0 mi South 3.5 mph - N/A   Scattered Clouds
9:15 PM 78.8 °F - 77.0 °F 94% 29.92 in 10.0 mi SSW 4.6 mph - N/A   Scattered Clouds
9:35 PM 78.8 °F - 78.8 °F 100% 29.92 in 10.0 mi SSW 3.5 mph - N/A   Scattered Clouds
9:55 PM 78.8 °F - 78.8 °F 100% 29.92 in 10.0 mi SSW 4.6 mph - N/A   Clear
10:15 PM 78.8 °F - 78.8 °F 100% 29.92 in 10.0 mi SSW 5.8 mph - N/A   Clear
10:35 PM 78.8 °F - 78.8 °F 100% 29.92 in 10.0 mi Calm Calm - N/A   Clear
10:55 PM 78.8 °F - 78.8 °F 100% 29.92 in 10.0 mi Calm Calm - N/A   Clear
11:15 PM 75.2 °F - 75.2 °F 100% 29.92 in 10.0 mi Calm Calm - N/A   Clear
11:35 PM 77.0 °F - 77.0 °F 100% 29.92 in 10.0 mi Calm Calm - N/A   Clear
11:55 PM 77.0 °F - 77.0 °F 100% 29.91 in 10.0 mi Calm Calm - N/A   Clear